Houston / Dunn Helistop, TX

1:20 PM CDT on June 25, 2017 (GMT -0500)
Houston / Dunn Helistop

Weather History for KMCJ - November, 2012

Change the Weather History Date:

Monday, November 5, 2012

  Actual Average (KHOU) Record (KHOU)
Temperature  
Mean Temperature 75 °F -  
Max Temperature 84 °F 73 °F 88 °F (1963)
Min Temperature 66 °F 54 °F 31 °F (1991)
Cooling Degree Days 10    
Growing Degree Days 25 (Base 50)    
Moisture  
Dew Point 62 °F    
Average Humidity 69    
Maximum Humidity 100    
Minimum Humidity 42    
Precipitation  
Precipitation 0.04 in - - ()
Sea Level Pressure  
Sea Level Pressure 29.98 in    
Wind  
Wind Speed 6 mph (NW)    
Max Wind Speed 16 mph    
Max Gust Speed 22 mph    
Visibility 9 miles    
Events      
Averages and records for this station are not official NWS values.
T = Trace of Precipitation, MM = Missing Value Source: NWS Daily Summary

Daily Weather History Graph

Daily Weather History Graph

Search for Another Location

Airport or City:

Trip Planner

Search our weather history database for the weather conditions in past years. The results will help you decide how hot, cold, wet, or windy it might be!

Date:

Astronomy

Nov. 05, 2012 Rise Set
Actual Time 6:38 AM CST 5:31 PM CST
Civil Twilight 6:13 AM CST 5:56 PM CST
Nautical Twilight 5:45 AM CST 6:24 PM CST
Astronomical Twilight 5:17 AM CST 6:52 PM CST
Moon 11:09 PM CST (11/5) 11:57 AM CST (11/5)
Length of Visible Light 11h 42m
Length of Day
10h 52m
Waning Gibbous, 62% of the Moon is Illuminated
Nov 5
Waning Gibbous
Nov 6
Last Quarter
Nov 13
New
Nov 20
First Quarter
Nov 28
Full

Hourly Weather History & Observations

Time (CST) Temp. Heat Index Dew Point Humidity Pressure Visibility Wind Dir Wind Speed Gust Speed Precip Events Conditions
12:15 AM 68.0 °F - 64.4 °F 88% 30.03 in 10.0 mi WSW 5.8 mph - N/A   Clear
12:35 AM 68.0 °F - 64.4 °F 88% 30.02 in 10.0 mi Calm Calm - N/A   Clear
12:55 AM 68.0 °F - 64.4 °F 88% 30.02 in 10.0 mi SW 4.6 mph - N/A   Clear
1:15 AM 68.0 °F - 64.4 °F 88% 30.02 in 10.0 mi SW 3.5 mph - N/A   Clear
1:35 AM 68.0 °F - 64.4 °F 88% 30.02 in 10.0 mi WSW 5.8 mph - N/A   Clear
1:55 AM 68.0 °F - 64.4 °F 88% 30.01 in 10.0 mi West 5.8 mph - N/A   Clear
2:15 AM 68.0 °F - 64.4 °F 88% 30.02 in 10.0 mi WSW 5.8 mph - N/A   Clear
2:35 AM 68.0 °F - 64.4 °F 88% 30.01 in 10.0 mi WNW 3.5 mph - N/A   Clear
2:55 AM 66.2 °F - 64.4 °F 94% 30.01 in 10.0 mi Calm Calm - N/A   Clear
3:15 AM 68.0 °F - 66.2 °F 94% 30.00 in 10.0 mi WNW 3.5 mph - N/A   Clear
3:35 AM 66.2 °F - 64.4 °F 94% 30.00 in 10.0 mi WNW 6.9 mph - N/A   Clear
3:55 AM 66.2 °F - 64.4 °F 94% 30.00 in 10.0 mi West 9.2 mph - N/A   Mostly Cloudy
4:15 AM 66.2 °F - 64.4 °F 94% 30.00 in 0.2 mi WNW 9.2 mph - N/A   Overcast
4:35 AM 66.2 °F - 64.4 °F 94% 30.00 in 0.2 mi West 9.2 mph - N/A   Overcast
4:55 AM 66.2 °F - 64.4 °F 94% 30.00 in 0.2 mi West 4.6 mph - N/A   Overcast
5:15 AM 66.2 °F - 64.4 °F 94% 30.00 in 0.2 mi West 5.8 mph - N/A   Overcast
5:35 AM 66.2 °F - 64.4 °F 94% 30.01 in 0.2 mi Calm Calm - N/A   Overcast
5:55 AM 66.2 °F - 64.4 °F 94% 30.01 in 1.8 mi WNW 5.8 mph - N/A   Mostly Cloudy
6:15 AM 66.2 °F - 64.4 °F 94% 30.01 in 10.0 mi WNW 6.9 mph - N/A   Clear
6:35 AM 66.2 °F - 64.4 °F 94% 30.01 in 10.0 mi WNW 6.9 mph - N/A   Clear
6:55 AM 66.2 °F - 64.4 °F 94% 30.01 in 10.0 mi West 5.8 mph - N/A   Clear
7:15 AM 66.2 °F - 66.2 °F 100% 30.02 in 10.0 mi WNW 4.6 mph - N/A   Clear
7:35 AM 68.0 °F - 66.2 °F 94% 30.02 in 10.0 mi WNW 5.8 mph - N/A   Clear
7:55 AM 68.0 °F - 66.2 °F 94% 30.03 in 9.0 mi WNW 4.6 mph - N/A   Clear
8:15 AM 68.0 °F - 66.2 °F 94% 30.03 in 8.0 mi West 5.8 mph - N/A   Clear
8:35 AM 69.8 °F - 68.0 °F 94% 30.03 in 8.0 mi Calm Calm - N/A   Clear
8:55 AM 71.6 °F - 68.0 °F 88% 30.03 in 7.0 mi Calm Calm - N/A   Clear
9:15 AM 75.2 °F - 69.8 °F 83% 30.03 in 10.0 mi Calm Calm - N/A   Clear
9:35 AM 77.0 °F - 69.8 °F 78% 30.03 in 10.0 mi Calm Calm - N/A   Clear
9:55 AM - - - N/A% 30.03 in 10.0 mi Calm Calm - N/A   Clear
10:15 AM - - - N/A% 30.02 in - Calm Calm - N/A   Unknown
10:35 AM 80.6 °F 82.7 °F 66.2 °F 61% 30.02 in - WNW 6.9 mph - N/A   Clear
10:55 AM 82.4 °F 83.9 °F 64.4 °F 54% 30.02 in 10.0 mi NW 8.1 mph - N/A   Clear
11:15 AM 82.4 °F 83.9 °F 64.4 °F 54% 30.01 in 10.0 mi West 8.1 mph 16.1 mph 0.04 in   Partly Cloudy
11:35 AM 82.4 °F 83.9 °F 64.4 °F 54% 30.00 in 10.0 mi Calm Calm - 0.04 in   Clear
11:55 AM 82.4 °F 83.9 °F 64.4 °F 54% 29.99 in 10.0 mi WNW 6.9 mph - 0.04 in   Clear
12:15 PM 82.4 °F 83.9 °F 64.4 °F 54% 29.98 in 10.0 mi WNW 6.9 mph - N/A   Clear
12:35 PM 82.4 °F 83.9 °F 64.4 °F 54% 29.97 in 10.0 mi West 11.5 mph - N/A   Partly Cloudy
12:55 PM 82.4 °F 83.4 °F 62.6 °F 51% 29.95 in 10.0 mi NW 5.8 mph - N/A   Scattered Clouds
1:15 PM 84.2 °F 85.0 °F 62.6 °F 48% 29.94 in 10.0 mi WNW 8.1 mph 18.4 mph N/A   Scattered Clouds
1:35 PM 84.2 °F 85.0 °F 62.6 °F 48% 29.93 in 10.0 mi NW 9.2 mph - N/A   Partly Cloudy
1:55 PM 84.2 °F 85.0 °F 62.6 °F 48% 29.92 in 10.0 mi WNW 8.1 mph - N/A   Mostly Cloudy
2:15 PM 82.4 °F 83.4 °F 62.6 °F 51% 29.91 in 10.0 mi North 6.9 mph - N/A   Mostly Cloudy
2:35 PM 80.6 °F 81.5 °F 60.8 °F 51% 29.91 in 10.0 mi NNW 5.8 mph - N/A   Partly Cloudy
2:55 PM 82.4 °F 83.4 °F 62.6 °F 51% 29.90 in 10.0 mi NNW 4.6 mph - N/A   Scattered Clouds
3:15 PM 84.2 °F 84.4 °F 60.8 °F 45% 29.90 in 10.0 mi West 10.4 mph 16.1 mph N/A   Partly Cloudy
3:35 PM 84.2 °F 84.4 °F 60.8 °F 45% 29.90 in 10.0 mi NW 11.5 mph 16.1 mph N/A   Clear
3:55 PM 84.2 °F 84.4 °F 60.8 °F 45% 29.90 in 10.0 mi NW 9.2 mph - N/A   Clear
4:15 PM 84.2 °F 83.8 °F 59.0 °F 42% 29.89 in 10.0 mi NW 9.2 mph - N/A   Clear
4:35 PM 82.4 °F 82.0 °F 57.2 °F 42% 29.89 in 10.0 mi NW 10.4 mph - N/A   Clear
4:55 PM 82.4 °F 82.5 °F 59.0 °F 45% 29.89 in 10.0 mi NNW 9.2 mph - N/A   Clear
5:15 PM 80.6 °F 81.1 °F 59.0 °F 48% 29.89 in 10.0 mi NW 6.9 mph - N/A   Clear
5:35 PM 80.6 °F 81.5 °F 60.8 °F 51% 29.90 in 10.0 mi NW 8.1 mph - N/A   Clear
5:55 PM 80.6 °F 81.5 °F 60.8 °F 51% 29.91 in 10.0 mi NW 5.8 mph - N/A   Clear
6:15 PM 78.8 °F - 60.8 °F 54% 29.91 in 10.0 mi NNW 4.6 mph - N/A   Clear
6:35 PM 78.8 °F - 62.6 °F 57% 29.92 in 10.0 mi North 5.8 mph - N/A   Mostly Cloudy
6:55 PM 78.8 °F - 62.6 °F 57% 29.92 in 10.0 mi NNE 8.1 mph - N/A   Mostly Cloudy
7:15 PM 77.0 °F - 62.6 °F 61% 29.93 in 10.0 mi NE 12.7 mph 17.3 mph N/A   Mostly Cloudy
7:35 PM 75.2 °F - 62.6 °F 65% 29.95 in 10.0 mi NE 10.4 mph - N/A   Partly Cloudy
7:55 PM 75.2 °F - 62.6 °F 65% 29.96 in 10.0 mi NE 12.7 mph 16.1 mph N/A   Partly Cloudy
8:15 PM 75.2 °F - 62.6 °F 65% 29.97 in 10.0 mi NNE 16.1 mph 21.9 mph N/A   Partly Cloudy
8:35 PM 73.4 °F - 60.8 °F 65% 29.97 in 10.0 mi NNE 16.1 mph 19.6 mph N/A   Scattered Clouds
8:55 PM 73.4 °F - 59.0 °F 61% 29.98 in 10.0 mi NNE 12.7 mph 18.4 mph N/A   Scattered Clouds
9:15 PM 73.4 °F - 59.0 °F 61% 29.99 in 10.0 mi NNE 12.7 mph - N/A   Clear
9:35 PM 71.6 °F - 57.2 °F 60% 29.99 in 10.0 mi North 11.5 mph 16.1 mph N/A   Partly Cloudy
9:55 PM 71.6 °F - 57.2 °F 60% 29.99 in 10.0 mi North 12.7 mph 19.6 mph N/A   Scattered Clouds
10:15 PM 71.6 °F - 53.6 °F 53% 30.00 in 10.0 mi NNE 11.5 mph 19.6 mph N/A   Mostly Cloudy
10:35 PM 71.6 °F - 53.6 °F 53% 30.01 in 10.0 mi NE 15.0 mph 18.4 mph N/A   Mostly Cloudy
10:55 PM 71.6 °F - 53.6 °F 53% 30.01 in 10.0 mi NNE 11.5 mph - N/A   Overcast
11:15 PM 69.8 °F - 51.8 °F 53% 30.00 in 10.0 mi NE 10.4 mph 16.1 mph N/A   Partly Cloudy
11:35 PM 68.0 °F - 53.6 °F 60% 30.00 in 10.0 mi NE 5.8 mph - N/A   Partly Cloudy
11:55 PM 68.0 °F - 53.6 °F 60% 29.99 in 10.0 mi NNE 4.6 mph - N/A   Clear